EHI
0 0 0 0 0 0 0 0 0 0 0 0 1 1 1 2 2 1 1 1 0 1 2 2 2 2 1 2 5 7 7 6 5 5 5 5 5 4 2 1 2 3 3 3
0 0 0 0 0 0 0 0 0 0 0 0 1 1 1 1 1 0 0 0 1 3 4 4 5 4 2 3 5 7 7 5 3 4 5 6 7 6 3 2 2 2 2 2
0 0 0 0 0 0 0 0 0 0 0 0 1 1 1 1 0 0 0 0 1 4 6 7 7 7 5 4 5 6 6 4 3 4 5 7 9 7 4 2 2 2 2 2
0 0 0 0 0 0 0 0 0 0 0 0 0 1 2 2 1 0 0 0 1 3 6 7 8 8 7 5 4 6 7 7 6 6 6 7 8 6 3 2 3 4 4 3
0 0 0 0 0 0 0 0 0 0 0 0 0 0 2 3 3 2 0 0 1 3 5 7 8 9 8 6 5 7 9 10 10 9 7 7 6 4 2 2 3 4 3 3
0 0 0 0 0 0 0 0 0 0 0 0 0 0 1 3 4 3 1 1 2 4 6 8 10 11 11 9 8 8 10 11 12 11 9 7 5 4 3 3 3 3 3 3
0 0 0 0 0 0 0 0 0 0 0 0 0 1 2 3 3 3 2 1 3 5 7 10 13 16 15 12 11 11 12 14 14 13 11 9 6 5 4 3 2 3 3 3
0 0 0 0 0 0 0 0 0 0 0 0 0 1 2 1 1 2 3 2 4 7 9 11 15 17 17 16 16 16 16 17 16 15 14 12 9 6 4 2 2 4 5 4
0 0 0 0 0 0 0 0 0 0 0 0 0 1 2 2 1 2 3 4 6 10 12 14 16 18 17 18 20 19 18 18 17 16 14 13 11 9 6 4 5 7 8 7
0 0 0 0 0 0 0 0 0 0 0 0 0 1 2 3 2 3 5 6 8 11 15 17 19 19 17 16 16 15 15 17 17 15 12 11 12 12 10 8 10 12 12 11
0 0 0 0 0 0 0 0 0 0 0 0 0 0 1 2 3 4 6 8 9 10 13 18 20 18 14 12 10 9 11 14 14 13 11 10 11 13 12 11 13 15 14 13
0 0 0 0 0 0 0 0 0 0 0 0 0 0 1 1 3 5 7 8 9 9 11 16 18 17 15 12 9 9 9 11 12 13 12 11 12 14 14 14 15 14 13 12
0 0 0 0 0 0 0 0 0 0 0 0 0 0 1 1 3 6 7 8 8 8 10 13 17 18 17 16 15 13 11 11 12 15 15 15 15 16 17 16 14 13 12 11
0 0 0 0 0 0 0 0 0 0 0 0 0 0 1 2 5 7 8 8 8 8 10 14 17 18 17 17 19 19 16 15 16 18 19 20 21 20 19 15 12 12 11 11
0 0 0 0 0 0 0 0 0 0 0 0 0 1 2 4 6 9 10 9 9 11 12 15 17 17 15 14 17 21 21 20 21 22 24 25 25 24 21 16 12 11 11 11
0 0 0 0 0 0 0 0 0 0 0 0 0 1 3 6 8 11 12 12 13 14 15 15 16 16 14 13 16 21 24 25 26 27 28 27 27 24 20 17 13 12 12 12
0 0 0 0 0 0 0 0 0 0 0 0 1 3 5 7 8 9 10 12 15 17 16 15 15 16 15 16 18 21 25 28 30 30 30 30 28 24 21 18 17 17 17 17
0 0 0 0 0 0 0 0 0 0 0 1 2 3 4 4 4 4 6 9 13 16 16 14 15 16 18 19 22 23 25 29 32 32 31 30 30 27 23 21 22 22 22 22
0 0 0 0 0 0 0 0 0 0 0 1 2 2 2 1 1 1 4 9 13 17 16 14 14 17 20 22 23 25 28 29 28 27 27 27 28 27 24 23 22 21 21 21
0 0 0 0 0 0 0 0 0 0 1 2 2 2 2 1 1 3 7 11 16 19 20 17 16 17 19 19 22 26 28 26 22 20 22 23 23 23 22 20 20 18 18 18
0 0 0 0 0 0 0 0 0 0 2 3 3 2 2 2 4 7 11 13 16 20 21 21 19 18 16 15 18 22 22 19 17 17 19 21 20 18 16 15 15 14 14 14
0 0 0 0 0 0 0 0 0 1 3 3 2 1 2 5 8 11 13 14 15 17 20 22 21 19 15 13 13 14 14 13 13 15 18 18 16 12 11 11 11 9 9 9
0 0 0 0 0 0 0 0 0 1 2 2 1 2 4 7 9 11 14 16 15 16 19 21 19 17 14 11 9 8 8 9 11 15 17 16 12 9 8 9 9 7 6 6
0 0 0 0 0 0 0 0 0 1 1 1 2 4 5 7 9 12 15 17 17 18 19 19 16 13 11 9 8 8 8 10 12 15 17 16 13 10 9 9 8 7 6 5
0 0 0 0 0 0 0 0 0 1 1 0 1 4 6 7 9 12 14 17 18 19 18 17 15 12 10 10 9 9 10 12 14 15 16 16 14 12 10 9 8 6 6 5
0 0 0 0 0 0 1 1 1 0 0 0 1 4 6 7 9 11 13 16 19 19 17 17 15 13 12 11 11 10 11 12 14 15 14 14 14 13 11 9 7 5 4 4
Wind_Speed
6 8 5 3 3 2 1 2 1 3 2 2 1 1 3 6 6 6 6 7 7 6 7 7 7 6 7 6 6 6 5 5 4 3 3 3 3 2 2 2 2 1 1 1
8 8 4 3 3 5 4 3 1 2 1 3 1 1 3 5 5 5 5 6 7 8 8 7 8 7 7 7 7 6 5 5 5 3 2 1 1 1 1 1 1 1 1 1
10 3 3 5 6 7 6 4 2 1 2 4 3 4 5 5 5 5 5 6 7 8 9 9 8 8 8 8 7 6 6 6 5 4 3 3 3 2 2 1 1 1 1 1
8 4 6 8 7 7 5 2 3 3 5 2 4 1 5 5 5 5 6 6 7 8 9 9 9 9 9 9 8 7 7 6 6 5 4 4 2 2 1 1 1 1 1 1
7 6 7 7 5 6 2 2 4 5 6 5 4 4 4 4 3 4 4 6 6 8 9 9 10 10 9 9 9 8 8 7 7 6 5 5 3 2 1 1 1 1 1 1
6 5 6 4 3 4 3 5 6 7 7 5 1 5 2 3 1 2 4 4 6 8 9 9 9 9 9 9 9 8 8 7 7 7 5 5 4 3 2 2 1 2 2 1
9 9 7 6 7 7 8 7 6 6 5 2 1 3 3 4 3 1 3 5 5 7 9 10 11 11 10 10 9 8 8 8 7 7 6 5 5 4 4 3 2 2 1 1
10 10 8 7 7 6 8 9 6 5 4 2 4 2 4 4 3 2 3 4 5 6 8 9 11 11 11 10 10 9 8 8 7 7 6 5 5 4 3 3 3 2 2 0
8 8 7 5 5 7 7 8 7 8 7 6 2 2 4 3 2 2 3 4 4 5 7 9 10 10 10 10 10 9 9 7 6 6 6 5 5 4 3 3 4 3 2 2
6 6 7 6 7 5 6 6 6 7 6 7 5 4 2 3 2 2 3 3 3 4 6 8 9 10 9 9 9 8 8 7 6 6 6 5 5 5 4 4 3 2 2 2
8 8 7 8 8 7 7 8 7 6 7 8 5 1 4 2 1 1 2 3 3 4 5 6 7 8 9 9 9 8 8 7 7 6 5 5 5 4 5 4 3 3 3 3
7 8 8 7 4 4 7 6 8 7 7 7 7 1 5 2 1 1 1 2 2 3 5 6 7 7 7 7 7 8 7 7 7 6 5 5 4 5 5 4 3 3 4 4
5 7 9 10 10 9 8 7 8 8 7 8 9 3 6 3 2 1 2 2 3 3 4 5 6 6 6 6 6 6 7 7 6 6 6 5 5 5 4 4 4 4 4 4
7 8 10 10 6 7 8 9 9 10 9 8 9 5 2 1 1 1 1 2 3 3 4 4 5 5 5 5 5 5 5 5 5 5 6 5 5 5 5 4 4 4 4 5
7 9 9 7 6 7 9 10 10 11 10 10 8 6 2 1 1 1 1 2 3 3 3 4 4 4 5 5 5 5 4 4 4 5 5 5 5 5 5 4 4 4 4 5
5 7 8 9 8 9 10 10 10 10 10 9 8 5 1 0 1 2 2 2 2 2 2 3 3 4 4 4 4 4 4 4 4 5 5 5 5 5 5 5 5 5 5 5
6 7 9 9 8 10 12 10 10 9 8 9 9 3 2 2 1 2 2 2 2 2 2 1 2 3 3 3 3 4 4 3 4 4 4 4 4 5 5 5 4 5 5 5
5 7 7 7 9 13 4 3 6 7 7 6 5 3 3 2 1 1 2 2 1 1 1 1 1 1 2 2 3 3 3 3 3 3 3 3 4 4 4 4 4 4 5 5
5 6 7 8 10 10 6 4 4 6 7 4 4 3 1 1 2 3 2 1 1 1 1 1 1 1 2 1 2 3 3 3 2 2 2 2 3 4 4 4 4 4 5 5
5 6 8 8 10 10 3 3 2 6 8 2 3 2 1 3 6 2 2 1 1 1 1 1 1 2 2 2 1 2 2 2 2 2 2 2 2 3 4 4 5 4 5 5
7 7 9 10 10 6 4 1 4 8 1 1 3 3 3 4 4 1 0 0 0 1 2 1 1 1 2 2 1 2 1 1 1 1 2 2 3 4 4 4 4 4 5 5
6 6 7 8 10 4 4 1 3 3 4 2 3 3 3 1 0 0 0 1 1 1 1 1 1 2 2 2 1 1 1 0 1 1 1 2 3 4 3 3 4 4 5 6
5 3 3 4 3 3 1 2 3 3 2 3 3 3 2 2 2 1 1 1 0 0 1 1 2 2 2 2 1 1 0 1 1 1 2 2 3 3 3 4 4 5 5 5
3 2 4 4 2 1 2 3 2 2 3 3 3 3 2 2 2 2 1 1 1 1 1 1 1 1 1 1 0 0 0 1 2 2 2 3 3 3 3 4 4 4 4 4
3 4 5 5 3 2 1 1 2 3 3 3 3 3 3 3 2 2 2 2 2 2 2 2 1 1 1 0 1 1 1 2 2 3 3 4 4 3 3 4 4 5 4 3
5 5 6 3 2 3 2 2 3 4 4 4 4 4 3 3 3 3 2 2 2 2 2 2 2 1 1 1 1 1 2 2 3 4 4 4 4 3 4 4 4 3 5 4
Wind_Direction
208 226 221 220 252 318 279 287 25 61 82 258 256 140 143 161 183 180 175 171 170 169 163 164 165 162 155 153 154 157 159 154 166 168 173 162 162 167 155 141 127 155 180 175
212 221 223 244 224 231 231 247 200 121 117 266 270 213 139 168 190 191 185 183 181 174 169 171 172 170 166 162 162 161 165 163 173 161 173 174 171 175 136 117 131 200 190 225
232 208 180 215 215 226 237 260 289 315 222 214 241 181 152 163 180 190 197 196 191 185 179 177 179 179 175 171 172 169 170 168 174 171 179 176 179 193 171 167 166 182 198 227
232 202 214 226 228 240 239 256 268 245 251 217 262 268 135 157 176 193 201 201 199 192 186 181 180 180 182 176 172 172 172 172 171 181 190 196 195 193 164 201 143 167 171 205
207 200 213 222 229 244 265 240 246 252 260 260 232 273 113 154 180 185 195 201 198 193 189 185 184 179 180 177 174 172 171 173 175 184 191 207 211 206 204 201 156 215 181 201
220 201 231 234 219 219 198 210 216 231 246 243 283 283 100 103 78 139 167 189 190 187 185 185 182 176 179 178 178 174 170 175 179 187 196 208 214 219 233 231 217 217 193 185
205 204 201 216 210 192 218 234 231 224 225 227 135 264 54 57 66 107 159 171 179 179 179 181 181 178 180 180 179 176 173 177 182 188 196 201 209 212 218 238 221 240 229 185
211 205 194 208 229 231 229 249 263 274 271 246 190 234 90 73 86 108 139 152 162 172 177 178 178 178 179 178 179 178 177 180 184 189 194 202 210 219 212 215 253 240 252 244
225 209 173 199 228 237 226 240 269 263 263 268 213 155 146 113 124 132 141 145 157 170 172 173 173 174 175 175 177 178 177 179 184 190 192 198 209 223 228 222 229 234 233 230
243 227 189 186 204 211 261 245 237 249 263 260 232 219 158 141 150 148 144 143 149 162 165 168 170 172 174 175 172 176 176 176 182 190 202 195 203 211 218 228 229 243 251 260
238 233 201 199 215 216 212 222 247 256 266 269 262 135 80 114 116 137 138 138 148 161 161 161 164 169 174 174 174 178 181 183 186 194 199 206 206 205 210 215 221 227 239 244
234 243 227 212 193 255 240 241 239 246 247 262 272 135 94 81 71 98 108 114 137 151 152 155 161 164 171 177 182 183 188 191 191 190 195 205 211 217 216 208 218 231 237 244
223 240 226 208 197 199 222 228 242 252 249 251 259 180 117 94 84 76 81 108 133 146 148 151 157 164 172 176 182 190 194 197 196 189 196 201 209 215 223 219 221 232 240 249
244 239 248 247 238 211 217 226 231 241 248 250 254 255 171 96 98 78 87 126 149 156 161 161 162 168 172 173 178 186 192 196 194 194 201 202 212 217 223 226 227 234 243 248
245 239 243 256 262 245 233 232 231 241 256 263 262 259 277 326 334 83 136 147 135 139 158 166 172 174 174 175 179 183 190 190 191 198 208 214 219 221 227 230 235 239 245 250
247 244 237 236 233 236 239 235 234 240 251 254 255 252 199 267 116 110 139 150 128 131 155 175 179 180 180 182 186 186 191 193 194 203 210 216 226 227 230 233 235 239 245 254
220 227 237 233 224 238 232 228 231 234 241 248 251 246 206 201 178 164 178 162 140 132 137 157 185 191 188 189 186 188 187 188 194 205 214 218 229 233 237 241 239 243 247 251
228 234 239 239 228 239 219 212 240 240 244 254 257 234 227 229 186 169 176 167 144 122 105 118 135 159 165 170 171 179 173 182 193 208 226 231 237 238 238 241 244 248 250 253
225 232 243 241 238 237 194 195 230 236 243 246 234 229 234 213 217 182 147 137 150 109 76 77 79 84 88 111 145 163 173 176 186 212 236 243 239 240 241 243 248 253 257 258
189 229 244 238 247 246 188 150 254 244 229 182 232 235 238 237 245 187 107 114 125 108 97 72 78 102 106 98 132 165 171 175 195 231 249 252 253 255 255 257 260 261 261 265
194 213 234 240 246 243 73 99 219 238 257 18 284 254 247 261 300 18 70 86 114 121 103 98 103 107 97 108 130 155 153 170 230 240 244 243 248 250 250 259 263 264 262 266
228 219 222 236 243 222 76 210 256 349 5 320 293 278 274 294 291 257 19 108 121 135 126 130 122 102 99 118 143 149 123 8 309 273 255 250 253 261 256 258 263 266 267 261
244 289 276 267 292 35 15 319 331 319 296 300 292 297 270 249 242 249 261 222 224 195 166 156 140 133 132 141 168 177 17 328 298 278 275 271 263 258 262 257 257 261 261 267
192 247 247 245 233 295 290 300 302 303 300 302 291 274 251 248 253 251 254 245 241 238 204 203 187 168 142 118 130 203 305 289 282 285 286 279 268 264 265 267 264 269 273 279
236 219 231 241 248 264 247 324 333 318 298 290 291 283 267 256 254 261 263 256 251 239 224 220 215 216 226 258 271 282 290 280 284 286 286 283 278 280 276 271 284 279 292 305
225 233 241 249 220 261 278 301 308 303 296 290 283 275 272 266 263 263 256 247 244 238 232 228 226 229 227 239 263 286 283 279 279 276 278 283 287 296 287 282 276 249 253 239